User: anonymous   Login
Location: Pardubice
(50.0618°N, 15.7556°E)
Time: 11:05:14
(UTC+01:00)
Language:

ISS - Orbit

View from above orbital plane
View from above orbital plane
View from above satellite
View from above satellite

Ground track
Ground track

The orbit data is extracted from the following two-line orbital elements,

1 25544U 98067A   19023.53333781  .00016717  00000-0  10270-3 0  9027
2 25544  51.6391    .6780 0004834 302.8928  57.1759 15.53178894 32773
Epoch (UTC): 23 January 2019 12:48:00
Eccentricity: 0.0004834
inclination: 51.6391°
perigee height: 404 km
apogee height: 411 km
right ascension of ascending node: 0.6780°
argument of perigee: 302.8928°
revolutions per day: 15.53178894
mean anomaly at epoch: 57.1759°
orbit number at epoch: 3277

The dashed part of the orbit path shows where the satellite is in the earth's shadow,  

DLR